"TOA5","AWS1","CR1000","7964","CR1000.Std.14","CPU:AWS1_114.CR1","64363","TBL110"
"TIMESTAMP","RECORD","Wind_spd_WVc(1)","Wind_spd_WVc(2)","Air_Temp_Avg","Humidity_Avg","SW_upper_Wm2_Avg","Rain_Tot","Press_Avg","Issui_Tot","Depth_cm","SR50A_Raw","Quality","Ground_Temp_Avg(1)","Ground_Temp_Avg(2)","SW_lower_Wm2_Avg","Albedo_Avg","SWC_per(1)","SWC_per(2)","Period(1)","Period(2)"
"TS","RN","","","","","","","","","","","","","","","","","","",""
"","","WVc","WVc","Avg","Avg","Avg","Tot","Avg","Tot","Smp","Smp","Smp","Avg","Avg","Avg","Avg","Smp","Smp","Smp","Smp"
"2016-04-30 00:00:00",233341,0.308,181.6,-0.292,90.7,0,0,861.0418,0,-5.227,3.235,181,8.61,9.51,0.1479368,0,51.99,60.27,33.79,35.74
"2016-04-30 00:10:00",233342,0.748,179.8,-0.327,89.9,0,0,860.8719,0,-5.353,3.235,191,8.56,9.54,0.2503594,0,51.94,60.33,33.77,35.75
"2016-04-30 00:20:00",233343,0.778,158.9,-0.333,89.5,0,0,860.7825,0,-5.127,3.234,185,8.5,9.49,0.1327658,0,51.99,60.27,33.79,35.74
"2016-04-30 00:30:00",233344,0.814,178.6,-0.154,85.5,0,0,860.8015,0,-5.306,3.235,189,8.53,9.44,0.3565773,0,51.99,60.27,33.79,35.74
"2016-04-30 00:40:00",233345,0.765,172.5,-0.308,87.2,0,0,860.9902,0,-5.209,3.233,188,8.44,9.41,0.1213892,0,51.94,60.27,33.77,35.74
"2016-04-30 00:50:00",233346,0.543,196.8,-0.21,85.2,0,0,861.0652,0,-5.382,3.236,184,8.46,9.39,0.1934645,0,51.99,60.27,33.79,35.74
"2016-04-30 01:00:00",233347,0.42,151.7,-0.458,87.1,0,0,861.0626,0,-5.302,3.236,188,8.42,9.39,0.08345486,0,51.99,60.27,33.79,35.74
"2016-04-30 01:10:00",233348,0.72,191.5,-0.3,85.5,0,0,861.071,0,-5.733,3.238,186,8.38,9.41,0.1820822,0,51.94,60.27,33.77,35.74
"2016-04-30 01:20:00",233349,0.44,189.3,-0.261,83.8,0,0,861.2031,0,-5.581,3.237,186,8.35,9.43,0.1631149,0,51.94,60.27,33.77,35.74
"2016-04-30 01:30:00",233350,0.46,196.1,-0.105,81.9,0,0,861.0947,0,-5.307,3.234,177,8.26,9.46,0.3338168,0,51.94,60.27,33.77,35.74
"2016-04-30 01:40:00",233351,0.523,174.5,-0.097,80.9,0,0,861.0814,0,-5.48,3.236,194,8.26,9.45,0.2162208,0,51.94,60.27,33.77,35.74
"2016-04-30 01:50:00",233352,0.584,202.3,-0.167,81.2,0,0,861.0746,0,-5.558,3.236,189,8.2,9.38,0.1062138,0,51.94,60.27,33.77,35.74
"2016-04-30 02:00:00",233353,0.659,169.7,-0.438,82.4,0,0,861.0774,0,-5.683,3.238,190,8.2,9.36,0.09104141,0,51.94,60.27,33.77,35.74
"2016-04-30 02:10:00",233354,0.362,169.8,-0.413,82.5,0,0,861.254,0,-5.356,3.236,177,8.13,9.31,0.1175958,0,51.94,60.27,33.77,35.74
"2016-04-30 02:20:00",233355,0.491,174,-0.429,83.4,0,0,861.1209,0,-5.38,3.237,190,8.1,9.33,0.1213895,0,51.94,60.27,33.77,35.74
"2016-04-30 02:30:00",233356,0.638,165.2,-0.646,84.4,0,0,861.0879,0,-5.698,3.242,186,8.11,9.34,0.04552111,0,51.94,60.21,33.77,35.73
"2016-04-30 02:40:00",233357,0.62,185.9,-0.588,84.5,0,0,861.0981,0,-5.658,3.238,195,8.01,9.33,0.257953,0,51.94,60.21,33.77,35.73
"2016-04-30 02:50:00",233358,0.872,167.6,-0.222,81.1,0,0,861.0976,0,-5.486,3.235,186,8.04,9.27,0.4362441,0,51.94,60.21,33.77,35.73
"2016-04-30 03:00:00",233359,0.935,165.6,-0.065,80.1,0,0,861.046,0,-5.656,3.239,185,7.989,9.23,0.2238122,0,51.94,60.21,33.77,35.73
"2016-04-30 03:10:00",233360,0.744,158.9,-0.45,82.9,0,0,860.8543,0,-5.953,3.243,185,7.936,9.21,0.0417277,0,51.94,60.21,33.77,35.73
"2016-04-30 03:20:00",233361,1.05,164.9,-0.221,80.5,0,0.5,860.9181,0,-5.94,3.238,178,7.902,9.23,0.3338216,0,51.94,60.21,33.77,35.73
"2016-04-30 03:30:00",233362,1.018,169.1,0.197,76.42,0,0,861.0974,0,-5.812,3.238,182,7.826,9.25,0.1896713,0,51.94,60.21,33.77,35.73
"2016-04-30 03:40:00",233363,0.675,154,-0.138,78.61,0,0,861.092,0,-5.233,3.234,181,7.851,9.26,0.007586854,0,51.94,60.15,33.77,35.71
"2016-04-30 03:50:00",233364,0.98,191.6,-0.094,77.02,0,0,861.0907,0,-5.112,3.23,186,7.788,9.27,0.07586767,0,51.94,60.21,33.77,35.73
"2016-04-30 04:00:00",233365,0.634,177,0.086,75.07,0,0,861.0871,0,-5.409,3.233,189,7.742,9.22,0.1365605,0,51.94,60.21,33.77,35.73
"2016-04-30 04:10:00",233366,1.057,171.2,-0.008,74.56,0,0,861.1926,0,-5.835,3.238,185,7.74,9.18,0.117593,0,51.88,60.21,33.76,35.73
"2016-04-30 04:20:00",233367,0.847,199,-0.014,74.44,0,0,861.0867,0,-6.362,3.242,186,7.701,9.13,0.09862749,0,51.94,60.21,33.77,35.73
"2016-04-30 04:30:00",233368,0.923,187.4,-0.02,73.96,0,0,861.1705,0,-5.26,3.231,186,7.68,9.16,0.04931289,0,51.94,60.15,33.77,35.71
"2016-04-30 04:40:00",233369,0.569,151.8,-0.12,73.76,0,0,861.1885,0,-5.03,3.231,190,7.682,9.16,0.06827877,0,51.88,60.21,33.76,35.73
"2016-04-30 04:50:00",233370,0.9,198.4,0.234,68.98,0,0,861.4805,0,-5.615,3.234,179,7.582,9.16,0.3451935,0,51.94,60.15,33.77,35.71
"2016-04-30 05:00:00",233371,0.727,206.7,0.427,66.48,0,0,861.572,0,-5.516,3.232,194,7.593,9.13,0.5159012,0,51.94,60.15,33.77,35.71
"2016-04-30 05:10:00",233372,0.642,188.5,0.389,65.18,1.754654,0,861.7175,0,-6.015,3.237,180,7.555,9.11,1.111445,1.143,51.88,60.15,33.76,35.71
"2016-04-30 05:20:00",233373,0.607,177.4,0.397,64.72,7.054092,0,861.8877,0,-6.343,3.24,176,7.493,9.07,1.85495,0.27,51.88,60.15,33.76,35.71
"2016-04-30 05:30:00",233374,0.716,177.9,0.541,62.32,15.41835,0,862.0138,0,-5.243,3.228,185,7.507,9.08,3.216779,0.209,51.88,60.15,33.76,35.71
"2016-04-30 05:40:00",233375,1.276,189.9,0.788,60.33,18.28993,0,862.0195,0,-5.135,3.228,183,7.428,9.06,3.448098,0.19,51.94,60.15,33.77,35.71
"2016-04-30 05:50:00",233376,1,186.8,0.675,60.75,25.89364,0,861.9153,0,-5.233,3.227,193,7.373,9.06,4.665551,0.179,51.94,60.15,33.77,35.71
"2016-04-30 06:00:00",233377,1.169,182.5,0.904,58.6,45.21227,0,861.8416,0,-5.056,3.223,206,7.392,9.07,10.19184,0.216,51.94,60.15,33.77,35.71
"2016-04-30 06:10:00",233378,1.018,164.6,1.161,57.85,82.65516,0,861.9626,0,-5.402,3.225,188,7.346,9.04,21.80129,0.268,51.94,60.09,33.77,35.7
"2016-04-30 06:20:00",233379,0.677,158.5,1.491,57.13,127.8449,0,862.0266,0,-4.692,3.217,176,7.297,9.01,24.0831,0.218,51.88,60.09,33.76,35.7
"2016-04-30 06:30:00",233380,0.967,201.4,2.141,52.27,111.0469,0,862.1443,0,-5.29,3.219,186,7.289,8.98,28.24574,0.29,51.88,60.03,33.76,35.69
"2016-04-30 06:40:00",233381,0.388,119.5,2.443,53.3,122.2555,0,862.2939,0,-5.337,3.219,179,7.264,8.95,25.882,0.248,51.88,60.09,33.76,35.7
"2016-04-30 06:50:00",233382,0.528,177.5,2.791,52.93,106.8952,0,862.5321,0,-5.287,3.215,189,7.215,8.93,25.14965,0.248,51.88,60.09,33.76,35.7
"2016-04-30 07:00:00",233383,0.493,154.9,3.274,48.75,85.96318,0,862.7217,0,-4.685,3.206,181,7.203,8.88,26.82562,0.32,51.94,60.03,33.77,35.69
"2016-04-30 07:10:00",233384,0.747,167.8,3.633,47.6,130.445,0,862.785,0,-5.667,3.214,179,7.135,8.87,25.91925,0.225,51.94,60.03,33.77,35.69
"2016-04-30 07:20:00",233385,0.437,162.7,4.082,47.38,85.26685,0,862.884,0,-5.592,3.211,179,7.13,8.86,25.94578,0.306,51.88,60.03,33.76,35.69
"2016-04-30 07:30:00",233386,1.08,158.3,4.377,45.45,93.49007,0,863.0289,0,-4.984,3.204,179,7.108,8.88,24.37568,0.265,51.88,60.03,33.76,35.69
"2016-04-30 07:40:00",233387,0.695,149.6,4.702,44.9,107.2181,0,863.0013,0,-4.971,3.201,176,7.07,8.89,27.13483,0.256,51.88,60.03,33.76,35.69
"2016-04-30 07:50:00",233388,0.817,212.2,4.833,43.87,474.4495,0,863.0791,0,-5.105,3.202,185,7.01,8.86,36.60679,0.087,51.88,60.03,33.76,35.69
"2016-04-30 08:00:00",233389,0.553,160.8,5.353,43.26,595.7968,0,862.9824,0,-4.182,3.19,180,6.936,8.83,64.30157,0.108,51.88,60.03,33.76,35.69
"2016-04-30 08:10:00",233390,0.419,50.7,5.519,40.34,631.2893,0,863.1695,0,-5.491,3.203,182,6.991,8.74,81.92627,0.13,51.88,60.03,33.76,35.69
"2016-04-30 08:20:00",233391,0.424,291.6,5.849,40.88,668.0494,0,863.1909,0,-5.537,3.2,183,7,8.73,92.42534,0.138,51.82,60.03,33.75,35.69
"2016-04-30 08:30:00",233392,0.493,332.6,6.116,39.99,688.4664,0,863.1371,0,-5.716,3.201,183,6.978,8.73,95.92805,0.139,51.88,60.03,33.76,35.69
"2016-04-30 08:40:00",233393,0.52,97.9,6.597,42.07,520.9778,0,863.163,0,-4.377,3.185,188,6.952,8.66,98.53642,0.217,51.94,60.03,33.77,35.69
"2016-04-30 08:50:00",233394,0.681,18.55,6.89,42.38,692.6844,0,863.2164,0,-4.765,3.189,189,6.93,8.65,95.22277,0.143,51.88,60.03,33.76,35.69
"2016-04-30 09:00:00",233395,0.719,154.9,6.709,42.35,777.6917,0,863.3127,0,-4.382,3.183,179,6.905,8.62,102.6189,0.132,51.88,60.03,33.76,35.69
"2016-04-30 09:10:00",233396,0.573,345.8,6.847,43.78,770.2761,0,863.2907,0,-4.777,3.189,188,6.883,8.57,104.9056,0.136,51.82,60.03,33.75,35.69
"2016-04-30 09:20:00",233397,0.723,348.9,6.585,44.69,766.2249,0,863.2767,0,-5.408,3.199,179,6.879,8.55,106.2672,0.139,51.88,60.03,33.76,35.69
"2016-04-30 09:30:00",233398,0.71,348.9,6.845,46.19,802.4039,0,863.3596,0,-5.093,3.188,178,6.895,8.55,112.4514,0.14,51.82,60.03,33.75,35.69
"2016-04-30 09:40:00",233399,0.472,274.9,7.286,45.4,844.5919,0,863.5209,0,-5.755,3.198,174,6.864,8.52,117.6141,0.139,51.88,60.03,33.76,35.69
"2016-04-30 09:50:00",233400,0.42,280,7.093,44.33,888.4335,0,863.6049,0,-4.333,3.181,187,6.841,8.48,124.2093,0.14,51.88,59.97,33.76,35.67
"2016-04-30 10:00:00",233401,0.504,284.5,7.323,45.54,925.8563,0,863.7523,0,-5.195,3.19,175,6.816,8.46,131.9372,0.142,51.82,60.03,33.75,35.69
"2016-04-30 10:10:00",233402,0.611,278.8,7.289,46.4,968.2299,0,863.7313,0,-4.738,3.185,184,6.88,8.46,141.9306,0.147,51.88,59.97,33.76,35.67
"2016-04-30 10:20:00",233403,0.775,299.2,7.755,48.88,1000.031,0,863.6323,0,-4.067,3.173,185,6.935,8.42,152.4355,0.152,51.82,59.97,33.75,35.67
"2016-04-30 10:30:00",233404,0.802,287.3,7.755,46.48,990.4246,0,863.7776,0,-4.887,3.185,192,6.952,8.41,155.5532,0.157,51.88,59.97,33.76,35.67
"2016-04-30 10:40:00",233405,0.995,305.1,7.795,47.16,1026.551,0,863.7776,0,-5.084,3.184,181,7.024,8.41,164.5086,0.16,51.88,59.97,33.76,35.67
"2016-04-30 10:50:00",233406,0.795,302.9,8.17,45.83,1031.046,0,863.7902,0,-5.314,3.187,180,7.091,8.36,166.9104,0.162,51.88,59.97,33.76,35.67
"2016-04-30 11:00:00",233407,0.689,276.5,8.55,46.1,1059.271,0,863.7819,0,-5.279,3.182,189,7.162,8.34,173.2557,0.164,51.82,59.97,33.75,35.67
"2016-04-30 11:10:00",233408,0.797,304.4,8.57,43.44,1066.308,0,863.7776,0,-4.419,3.175,180,7.267,8.35,176.4303,0.165,51.82,59.97,33.75,35.67
"2016-04-30 11:20:00",233409,0.909,350.6,8.81,43.7,1081.39,0,863.7776,0,-4.567,3.175,191,7.382,8.37,180.9361,0.167,51.82,59.97,33.75,35.67
"2016-04-30 11:30:00",233410,0.608,311.7,9.52,43.35,1079.135,0,863.7515,0,-5.594,3.18,187,7.475,8.35,181.9621,0.169,51.82,59.97,33.75,35.67
"2016-04-30 11:40:00",233411,0.709,288.1,9.78,40.82,1096.315,0,863.5848,0,-5.055,3.173,191,7.615,8.31,187.2995,0.171,51.82,59.97,33.75,35.67
"2016-04-30 11:50:00",233412,0.737,258,10,37.06,1113.781,0,863.6883,0,-4.695,3.169,184,7.745,8.3,193.0736,0.173,51.82,59.97,33.75,35.67
"2016-04-30 12:00:00",233413,0.645,316,10.57,37.49,1053.832,0,863.5414,0,-4.419,3.163,187,7.84,8.26,182.5718,0.173,51.77,59.97,33.73,35.67
"2016-04-30 12:10:00",233414,0.467,342.9,11.02,36.2,900.6072,0,863.529,0,-4.667,3.165,193,7.964,8.22,154.8586,0.168,51.77,59.97,33.73,35.67
"2016-04-30 12:20:00",233415,0.975,42.33,10.5,35.87,679.054,0,863.529,0,-5.536,3.176,189,8.1,8.2,110.3362,0.159,51.77,59.97,33.73,35.67
"2016-04-30 12:30:00",233416,0.946,292.7,9.52,37.65,592.076,0,863.5247,0,-4.148,3.166,190,8.22,8.2,98.24772,0.166,51.77,59.97,33.73,35.67
"2016-04-30 12:40:00",233417,0.891,312.7,9.73,37.77,629.6019,0,863.5226,0,-5.026,3.176,188,8.35,8.19,107.3367,0.168,51.71,59.97,33.72,35.67
"2016-04-30 12:50:00",233418,0.674,316.7,9.41,40.14,365.9795,0,863.5247,0,-4.603,3.172,181,8.51,8.18,58.57747,0.16,51.71,59.91,33.72,35.66
"2016-04-30 13:00:00",233419,0.609,311.1,9.41,41.25,377.8522,0,863.5205,0,-4.527,3.17,178,8.66,8.19,61.57257,0.163,51.71,59.91,33.72,35.66
"2016-04-30 13:10:00",233420,0.472,272.8,9.32,41.9,255.1118,0,863.5121,0,-4.79,3.175,187,8.78,8.22,40.09446,0.156,51.71,59.91,33.72,35.66
"2016-04-30 13:20:00",233421,0.299,281.1,8.9,44.76,119.1017,0,863.6721,0,-5.303,3.182,184,8.9,8.24,16.30458,0.136,51.66,59.91,33.7,35.66
"2016-04-30 13:30:00",233422,0.358,0.284,8.9,43.3,129.4193,0,863.7269,0,-5.279,3.182,193,9.01,8.26,18.68742,0.144,51.66,59.91,33.7,35.66
"2016-04-30 13:40:00",233423,0.402,290.8,8.72,44.53,155.5987,0,863.6669,0,-5.078,3.18,188,9.11,8.28,23.82441,0.153,51.66,59.91,33.7,35.66
"2016-04-30 13:50:00",233424,0.586,286.9,8.73,44.15,197.3281,0,863.4908,0,-5.336,3.183,180,9.21,8.29,31.70841,0.16,51.6,59.91,33.69,35.66
"2016-04-30 14:00:00",233425,0.715,330.7,8.87,42.44,299.2296,0,863.3749,0,-5.121,3.18,179,9.28,8.3,49.80823,0.165,51.66,59.91,33.7,35.66
"2016-04-30 14:10:00",233426,0.847,265.9,8.97,43.38,208.1462,0,863.3531,0,-5.112,3.18,187,9.39,8.32,34.05122,0.163,51.6,59.91,33.69,35.66
"2016-04-30 14:20:00",233427,0.387,283.1,9.03,46.05,159.0155,0,863.3608,0,-5.402,3.183,192,9.43,8.33,24.86893,0.154,51.6,59.85,33.69,35.64
"2016-04-30 14:30:00",233428,0.271,276.1,8.84,46.69,132.0737,0,863.3622,0,-5.302,3.181,179,9.53,8.35,19.98551,0.148,51.6,59.91,33.69,35.66
"2016-04-30 14:40:00",233429,0.061,299.1,8.82,44.56,96.6528,0,863.3183,0,-5.407,3.183,191,9.54,8.35,13.90751,0.143,51.55,59.85,33.68,35.64
"2016-04-30 14:50:00",233430,0.12,347.7,8.81,43.32,67.17235,0,863.2004,0,-5.309,3.183,192,9.62,8.33,8.950879,0.133,51.55,59.91,33.68,35.66
"2016-04-30 15:00:00",233431,0.083,272.7,8.79,44.92,51.78146,0,863.3248,0,-5.359,3.183,187,9.65,8.32,6.586219,0.126,51.55,59.91,33.68,35.66
"2016-04-30 15:10:00",233432,0.047,285.7,8.69,47.48,43.82266,0,863.4532,0,-5.388,3.185,184,9.68,8.3,5.521361,0.126,51.55,59.91,33.68,35.66
"2016-04-30 15:20:00",233433,0.53,145.5,8.11,54.82,43.50824,0,863.609,0,-5.317,3.187,187,9.75,8.3,5.559257,0.128,51.49,59.91,33.66,35.66
"2016-04-30 15:30:00",233434,0.182,57.7,7.978,54.32,45.62273,0,863.6153,0,-5.29,3.186,190,9.76,8.29,6.5218,0.143,51.49,59.85,33.66,35.64
"2016-04-30 15:40:00",233435,0.168,154.9,8.03,54.36,46.22406,0,863.6195,0,-5.064,3.185,179,9.74,8.36,6.699908,0.145,51.49,59.85,33.66,35.64
"2016-04-30 15:50:00",233436,0.448,173.6,7.833,56.09,46.07078,0,863.6153,0,-4.686,3.182,184,9.72,8.44,6.677171,0.145,51.49,59.85,33.66,35.64
"2016-04-30 16:00:00",233437,0.079,174.9,8.01,54.68,45.07249,0,863.6153,0,-4.834,3.182,180,9.72,8.46,6.809805,0.151,51.49,59.85,33.66,35.64
"2016-04-30 16:10:00",233438,0.106,89.5,7.995,54.88,45.73671,0,863.51,0,-4.758,3.181,179,9.72,8.46,6.968966,0.152,51.49,59.85,33.66,35.64
"2016-04-30 16:20:00",233439,0.207,236,7.938,55.18,26.41936,0,863.5922,0,-4.507,3.18,192,9.72,8.46,3.709961,0.138,51.49,59.85,33.66,35.64
"2016-04-30 16:30:00",233440,0.192,348.4,7.893,54.4,28.59674,0,863.668,0,-4.557,3.18,192,9.74,8.46,4.176074,0.145,51.44,59.79,33.65,35.63
"2016-04-30 16:40:00",233441,0.159,306,7.757,56.98,17.25394,0,863.7986,0,-5.068,3.187,186,9.76,8.52,2.357095,0.137,51.44,59.79,33.65,35.63
"2016-04-30 16:50:00",233442,0.022,272.1,7.443,60.79,23.98259,0,863.866,0,-5.068,3.187,179,9.76,8.55,3.937333,0.163,51.44,59.79,33.65,35.63
"2016-04-30 17:00:00",233443,0.079,338,7.491,60.91,12.14458,0,863.8682,0,-4.562,3.183,194,9.76,8.55,2.357094,0.209,51.44,59.79,33.65,35.63
"2016-04-30 17:10:00",233444,0.054,332.1,7.299,62.86,7.9038,0,863.864,0,-4.513,3.183,170,9.76,8.55,1.470342,0.19,51.44,59.79,33.65,35.63
"2016-04-30 17:20:00",233445,0.004,110.5,7.28,63.47,3.804514,0,863.8576,0,-4.715,3.185,190,9.76,8.55,1.098967,0.313,51.38,59.73,33.64,35.62
"2016-04-30 17:30:00",233446,0.005,159.9,7.253,67.5,5.423791,0,863.6785,0,-5.476,3.193,189,9.72,8.55,1.781084,0.329,51.38,59.73,33.64,35.62
"2016-04-30 17:40:00",233447,0.104,169.8,6.957,71.14,3.277856,0,863.7269,0,-5.277,3.193,192,9.69,8.55,1.011807,0.31,51.38,59.73,33.64,35.62
"2016-04-30 17:50:00",233448,0.014,201.1,7.015,69.26,1.882606,0,863.8682,0,-5.428,3.194,189,9.68,8.57,0.8715944,0.48,51.38,59.73,33.64,35.62
"2016-04-30 18:00:00",233449,0.058,40.5,6.83,72.66,0.3930283,0,864.0829,0,-4.671,3.188,197,9.68,8.63,1.034545,0.962,51.33,59.73,33.62,35.62
"2016-04-30 18:10:00",233450,0.244,33.97,6.302,80.1,0.01179123,0,864.144,0,-5.064,3.196,184,9.68,8.65,0.8185629,0.193,51.38,59.73,33.64,35.62
"2016-04-30 18:20:00",233451,0,0,5.826,89.6,0,0,864.3652,0,-5.101,3.198,185,9.64,8.66,0.4396293,0,51.33,59.73,33.62,35.62
"2016-04-30 18:30:00",233452,0,0,5.531,99.7,0,0,864.5485,0,-5.413,3.202,189,9.63,8.68,0.3790151,0,51.33,59.67,33.62,35.6
"2016-04-30 18:40:00",233453,0.055,198.2,5.467,100,0,0,864.628,0,-4.971,3.198,170,9.65,8.7,0.4548449,0,51.38,59.67,33.64,35.6
"2016-04-30 18:50:00",233454,0.28,133,5.421,100,0,0,864.6312,0,-5.129,3.2,187,9.64,8.72,0.5155244,0,51.33,59.67,33.62,35.6
"2016-04-30 19:00:00",233455,0.634,136.9,5.291,100,0,0,864.4355,0,-5.083,3.2,192,9.66,8.74,0.4511007,0,51.33,59.73,33.62,35.62
"2016-04-30 19:10:00",233456,0.539,130.3,5.203,100,0,0,864.6337,0,-5.236,3.202,180,9.6,8.79,0.4548975,0,51.33,59.67,33.62,35.6
"2016-04-30 19:20:00",233457,0.933,134.4,5.289,99.7,0,0,864.6685,0,-5.085,3.2,184,9.6,8.83,0.6179053,0,51.27,59.67,33.61,35.6
"2016-04-30 19:30:00",233458,0.758,100.9,5.269,96.4,0,0.5,864.698,0,-5.008,3.198,176,9.55,8.84,0.5799978,0,51.33,59.67,33.62,35.6
"2016-04-30 19:40:00",233459,1.125,78.47,5.476,87.5,0,0,864.7098,0,-5.21,3.2,174,9.56,8.84,1.008362,0,51.33,59.67,33.62,35.6
"2016-04-30 19:50:00",233460,0.914,102.3,5.289,93.6,0,0,864.717,0,-4.933,3.198,179,9.51,8.87,0.7960756,0,51.27,59.61,33.61,35.59
"2016-04-30 20:00:00",233461,1.096,77.87,5.644,82.8,0.05111115,0,864.7172,0,-5.334,3.199,180,9.51,8.86,1.235813,1.253,51.27,59.67,33.61,35.6
"2016-04-30 20:10:00",233462,1.425,75.33,5.957,76.95,0.1179488,0,864.7172,0,-5.132,3.196,192,9.51,8.83,1.341956,1.679,51.33,59.61,33.62,35.59
"2016-04-30 20:20:00",233463,0.878,77.08,6.179,74.16,0.1533334,0,864.772,0,-5.587,3.2,187,9.53,8.82,1.334374,3.101,51.33,59.67,33.62,35.6
"2016-04-30 20:30:00",233464,0.925,120.3,5.862,82.2,0,0,864.8563,0,-5.488,3.204,192,9.46,8.82,0.6747688,0,51.33,59.61,33.62,35.59
"2016-04-30 20:40:00",233465,0.361,145.8,5.353,91.8,0,0,864.8857,0,-5.438,3.204,192,9.42,8.84,0.2918944,0,51.33,59.61,33.62,35.59
"2016-04-30 20:50:00",233466,0.194,97.7,5.469,91,0,0,864.9658,0,-5.715,3.205,193,9.42,8.87,0.7922848,0,51.27,59.61,33.61,35.59
"2016-04-30 21:00:00",233467,0.232,176.9,5.451,95.4,0,0,864.97,0,-5.388,3.203,192,9.4,8.9,0.6823505,0,51.33,59.61,33.62,35.59
"2016-04-30 21:10:00",233468,0.192,33.31,5.686,90.2,0,0,865.0143,0,-5.587,3.201,171,9.37,8.9,1.034898,0,51.27,59.61,33.61,35.59
"2016-04-30 21:20:00",233469,0.427,189,5.656,92.6,0,0,864.97,0,-5.335,3.199,176,9.34,8.87,0.8415657,0,51.27,59.61,33.61,35.59
"2016-04-30 21:30:00",233470,0.128,115.3,5.812,89.1,0,0,864.8773,0,-5.184,3.198,179,9.35,8.84,0.9894083,0,51.33,59.61,33.62,35.59
"2016-04-30 21:40:00",233471,0.097,84.6,6.088,83,0,0,864.9764,0,-5.436,3.2,187,9.4,8.88,1.277512,0,51.33,59.56,33.62,35.58
"2016-04-30 21:50:00",233472,0.035,117.3,5.977,86.6,0,0,865.0565,0,-5.081,3.195,192,9.32,8.91,0.9401274,0,51.27,59.56,33.61,35.58
"2016-04-30 22:00:00",233473,0,0,6.448,78.05,0,0,865.2228,0,-5.432,3.196,184,9.25,8.9,1.569406,0,51.27,59.56,33.61,35.58
"2016-04-30 22:10:00",233474,0,0,5.991,90.1,0,0,865.1744,0,-5.083,3.198,189,9.25,8.9,0.8150299,0,51.27,59.56,33.61,35.58
"2016-04-30 22:20:00",233475,0.309,166.9,5.533,99.3,0,0,865.0817,0,-4.983,3.198,184,9.23,8.9,0.4549004,0,51.27,59.56,33.61,35.58
"2016-04-30 22:30:00",233476,0.25,152.5,5.518,98.1,0,0,865.0986,0,-5.059,3.198,177,9.19,8.9,0.5724163,0,51.27,59.56,33.61,35.58
"2016-04-30 22:40:00",233477,0.167,125.5,5.978,86.1,0,0,865.2228,0,-4.852,3.192,194,9.18,8.9,1.182741,0,51.27,59.56,33.61,35.58
"2016-04-30 22:50:00",233478,0.136,93.5,6.323,80.3,0,0,865.2271,0,-4.775,3.19,193,9.16,8.9,1.376074,0,51.27,59.5,33.61,35.56
"2016-04-30 23:00:00",233479,0.352,130.7,6.543,76.89,0.07076928,0,865.3471,0,-4.218,3.184,196,9.16,8.9,1.482217,1.261,51.27,59.5,33.61,35.56
"2016-04-30 23:10:00",233480,0.218,133.7,6.721,74.47,0,0,865.4756,0,-4.117,3.183,194,9.16,8.9,1.520126,0,51.27,59.5,33.61,35.56
"2016-04-30 23:20:00",233481,0.235,146.2,6.064,88.7,0,0,865.3415,0,-4.275,3.19,179,9.13,8.91,0.5686255,0,51.27,59.5,33.61,35.56
"2016-04-30 23:30:00",233482,0.368,144.1,5.854,90.5,0,0,865.2385,0,-3.817,3.183,189,9.15,8.91,0.7088864,0,51.27,59.5,33.61,35.56
"2016-04-30 23:40:00",233483,0.365,126.7,6.347,80.5,0,0,865.154,0,-3.714,3.18,185,9.08,8.9,1.353329,0,51.27,59.5,33.61,35.56
"2016-04-30 23:50:00",233484,0.784,150,6.485,78.18,0,0,864.9833,0,-3.788,3.18,187,9.08,8.93,1.243394,0,51.27,59.5,33.61,35.56
